Location: Marse
(42.1502°N, 110.9866°W)
Time: 02:45:15
(UTC+00:00)

BEESAT - Pass Details

Date: 30 June 2022
Orbit: 700 x 706 km, 98.6° (Epoch: 11 August)

Event Time Altitude Azimuth Distance (km) Brightness Sun altitude
Rises 04:41:17 0° 3° (N) 3,103 ? -14.2°
Reaches altitude 10° 04:43:45 10° 353° (N) 2,181 ? -14.5°
Maximum altitude 04:47:53 30° 293° (WNW) 1,253 ? -15.0°
Drops below altitude 10° 04:52:00 10° 233° (SW) 2,171 ? -15.4°
Sets 04:54:28 0° 222° (SW) 3,086 ? -15.7°
